.
WxDataArchive / Data Records for 2015-01-06
2015-01-05 January 2015 2015-01-07

Data Records for Tuesday, 06 January 2015

Time	Temp	Chill	HIndex	Humid	Dewpt	 Wind 	HiWind	WindDir	Rain 	Barom
-----	----	-----	------	-----	-----	------	------	-------	-----	-----
00:00	9.2	9.2	9.2	79	4.0	0	0	---	0.00	30.440 
00:05	9.2	9.2	9.2	79	4.0	0	0	---	0.00	30.440 
00:10	9.2	9.2	9.2	79	4.0	0	1	90	0.00	30.440 
00:15	9.2	9.2	9.2	79	4.0	0	0	---	0.00	30.431 
00:20	9.2	9.2	9.2	79	4.0	0	0	---	0.00	30.431 
00:25	9.2	9.2	9.2	79	4.0	0	0	---	0.00	30.431 
00:30	9.2	9.2	9.2	80	4.3	0	0	---	0.00	30.431 
00:35	9.2	9.2	9.2	80	4.3	0	1	90	0.00	30.431 
00:40	9.2	9.2	9.2	80	4.3	0	0	---	0.00	30.431 
00:45	9.2	9.2	9.2	80	4.3	0	0	---	0.00	30.431 
00:50	9.2	9.2	9.2	80	4.3	0	1	90	0.00	30.431 
00:55	9.0	9.0	9.0	80	4.1	0	0	---	0.00	30.431 
01:00	9.0	9.0	9.0	80	4.1	0	0	---	0.00	30.420 
01:05	9.0	9.0	9.0	80	4.1	0	0	---	0.00	30.420 
01:10	9.0	9.0	9.0	80	4.1	0	0	---	0.00	30.420 
01:15	9.0	9.0	9.0	81	4.4	0	0	---	0.00	30.414 
01:20	9.0	9.0	9.0	81	4.4	0	0	---	0.00	30.414 
01:25	9.0	9.0	9.0	81	4.4	0	0	---	0.00	30.414 
01:30	9.0	9.0	9.0	81	4.4	0	0	---	0.00	30.404 
01:35	9.0	9.0	9.0	81	4.4	0	0	---	0.00	30.404 
01:40	9.0	9.0	9.0	81	4.4	0	0	---	0.00	30.404 
01:45	9.0	9.0	9.0	81	4.4	0	0	---	0.00	30.397 
01:50	9.0	9.0	9.0	81	4.4	0	0	---	0.00	30.397 
01:55	9.0	9.0	9.0	81	4.4	0	0	---	0.00	30.397 
02:00	9.0	9.0	9.0	81	4.4	0	0	---	0.00	30.385 
02:05	9.0	9.0	9.0	81	4.4	0	0	---	0.00	30.385 
02:10	9.0	9.0	9.0	81	4.4	0	0	---	0.00	30.385 
02:15	9.0	9.0	9.0	81	4.4	0	0	---	0.00	30.383 
02:20	9.0	9.0	9.0	81	4.4	0	0	---	0.00	30.383 
02:25	9.0	9.0	9.0	81	4.4	0	0	---	0.00	30.383 
02:30	9.0	9.0	9.0	81	4.4	0	0	---	0.00	30.370 
02:35	8.8	8.8	8.8	81	4.2	0	0	---	0.00	30.370 
02:40	8.8	8.8	8.8	81	4.2	0	0	---	0.00	30.370 
02:45	8.8	8.8	8.8	81	4.2	0	1	90	0.00	30.361 
02:50	8.6	8.6	8.6	80	3.7	0	0	---	0.00	30.361 
02:55	8.6	8.6	8.6	81	4.0	0	0	---	0.00	30.361 
03:00	8.6	8.6	8.6	81	4.0	0	1	90	0.00	30.358 
03:05	8.6	8.6	8.6	81	4.0	0	1	90	0.00	30.358 
03:10	8.6	8.6	8.6	81	4.0	0	1	90	0.00	30.358 
03:15	8.6	8.6	8.6	81	4.0	0	0	---	0.00	30.359 
03:20	8.6	8.6	8.6	81	4.0	0	0	---	0.00	30.359 
03:25	8.6	8.6	8.6	81	4.0	0	1	90	0.00	30.359 
03:30	8.6	8.6	8.6	81	4.0	0	1	90	0.00	30.360 
03:35	8.6	8.6	8.6	81	4.0	0	0	---	0.00	30.360 
03:40	8.6	8.6	8.6	81	4.0	0	0	---	0.00	30.360 
03:45	8.8	8.8	8.8	81	4.2	0	1	90	0.00	30.354 
03:50	8.6	8.6	8.6	81	4.0	0	0	---	0.00	30.354 
03:55	8.6	8.6	8.6	81	4.0	0	1	90	0.00	30.354 
04:00	8.6	8.6	8.6	81	4.0	0	0	---	0.00	30.352 
04:05	8.6	8.6	8.6	81	4.0	0	0	---	0.00	30.352 
04:10	8.6	8.6	8.6	81	4.0	0	1	90	0.00	30.352 
04:15	8.6	8.6	8.6	81	4.0	0	1	90	0.00	30.344 
04:20	8.6	8.6	8.6	81	4.0	0	0	---	0.00	30.344 
04:25	8.6	8.6	8.6	81	4.0	0	0	---	0.00	30.344 
04:30	8.6	8.6	8.6	81	4.0	0	0	---	0.00	30.337 
04:35	8.6	8.6	8.6	81	4.0	0	1	90	0.00	30.337 
04:40	8.6	8.6	8.6	81	4.0	0	1	90	0.00	30.337 
04:45	8.6	8.6	8.6	81	4.0	0	1	90	0.00	30.325 
04:50	8.6	8.6	8.6	82	4.3	0	1	90	0.00	30.325 
04:55	8.6	8.6	8.6	82	4.3	0	0	---	0.00	30.325 
05:00	8.6	8.6	8.6	82	4.3	0	1	90	0.00	30.323 
05:05	8.6	8.6	8.6	82	4.3	0	1	90	0.00	30.323 
05:10	8.6	8.6	8.6	82	4.3	0	0	---	0.00	30.323 
05:15	8.6	8.6	8.6	82	4.3	0	1	90	0.00	30.322 
05:20	8.6	8.6	8.6	82	4.3	0	0	---	0.00	30.322 
05:25	8.6	8.6	8.6	82	4.3	0	0	---	0.00	30.322 
05:30	8.6	8.6	8.6	82	4.3	0	1	90	0.00	30.314 
05:35	8.6	8.6	8.6	82	4.3	0	1	90	0.00	30.314 
05:40	8.6	8.6	8.6	82	4.3	0	1	90	0.00	30.314 
05:45	8.6	8.6	8.6	82	4.3	0	1	90	0.00	30.315 
05:50	8.6	8.6	8.6	82	4.3	0	0	---	0.00	30.315 
05:55	8.6	8.6	8.6	82	4.3	0	0	---	0.00	30.315 
06:00	8.6	8.6	8.6	82	4.3	0	1	90	0.00	30.311 
06:05	8.4	8.4	8.4	82	4.1	0	0	---	0.00	30.311 
06:10	8.6	8.6	8.6	82	4.3	0	1	90	0.00	30.311 
06:15	8.6	8.6	8.6	82	4.3	0	1	90	0.00	30.317 
06:20	8.6	8.6	8.6	82	4.3	0	0	---	0.00	30.317 
06:25	8.6	8.6	8.6	82	4.3	0	0	---	0.00	30.317 
06:30	8.6	8.6	8.6	82	4.3	0	0	---	0.00	30.323 
06:35	8.6	8.6	8.6	82	4.3	0	0	---	0.00	30.323 
06:40	8.6	8.6	8.6	82	4.3	0	0	---	0.00	30.323 
06:45	8.6	8.6	8.6	82	4.3	0	0	---	0.00	30.323 
06:50	8.8	8.8	8.8	82	4.5	0	1	90	0.00	30.323 
06:55	8.8	8.8	8.8	82	4.5	0	0	---	0.00	30.323 
07:00	8.8	8.8	8.8	82	4.5	0	0	---	0.00	30.323 
07:05	8.8	8.8	8.8	82	4.5	0	0	---	0.00	30.323 
07:10	8.8	8.8	8.8	82	4.5	0	0	---	0.00	30.323 
07:15	8.8	8.8	8.8	82	4.5	0	0	---	0.00	30.333 
07:20	8.8	8.8	8.8	82	4.5	0	0	---	0.00	30.333 
07:25	8.8	8.8	8.8	82	4.5	0	0	---	0.00	30.333 
07:30	8.8	8.8	8.8	82	4.5	0	0	---	0.00	30.333 
07:35	8.8	8.8	8.8	82	4.5	0	0	---	0.00	30.333 
07:40	8.8	8.8	8.8	82	4.5	0	0	---	0.00	30.333 
07:45	8.8	8.8	8.8	82	4.5	0	0	---	0.00	30.337 
07:50	9.0	9.0	9.0	82	4.6	0	0	---	0.00	30.337 
07:55	9.0	9.0	9.0	82	4.6	0	0	---	0.00	30.337 
08:00	9.0	9.0	9.0	82	4.6	0	0	---	0.00	30.338 
08:05	9.0	9.0	9.0	82	4.6	0	0	---	0.00	30.338 
08:10	9.0	9.0	9.0	82	4.6	0	0	---	0.00	30.338 
08:15	8.8	8.8	8.8	82	4.5	0	0	---	0.00	30.336 
08:20	8.8	8.8	8.8	82	4.5	0	0	---	0.00	30.336 
08:25	8.6	8.6	8.6	81	4.0	0	1	90	0.00	30.336 
08:30	8.6	8.6	8.6	81	4.0	0	0	---	0.00	30.340 
08:35	8.4	8.4	8.4	81	3.8	0	0	---	0.00	30.340 
08:40	8.1	8.1	8.1	81	3.5	0	0	---	0.00	30.340 
08:45	7.9	7.9	7.9	81	3.3	0	0	---	0.00	30.354 
08:50	7.9	7.9	7.9	81	3.3	0	0	---	0.00	30.354 
08:55	8.3	8.3	8.3	82	4.0	0	0	---	0.00	30.354 
09:00	8.8	8.8	8.8	82	4.5	0	0	---	0.00	30.353 
09:05	9.2	9.2	9.2	83	5.1	0	0	---	0.00	30.353 
09:10	9.7	9.7	9.7	83	5.6	0	0	---	0.00	30.353 
09:15	10.0	10.0	10.0	83	5.9	0	0	---	0.00	30.360 
09:20	10.4	10.4	10.4	83	6.3	0	0	---	0.00	30.360 
09:25	10.5	10.5	10.5	82	6.1	0	0	---	0.00	30.360 
09:30	10.9	10.9	10.9	82	6.5	0	1	90	0.00	30.357 
09:35	11.1	11.1	11.1	82	6.7	0	1	90	0.00	30.357 
09:40	11.2	11.2	11.2	82	6.8	0	0	---	0.00	30.357 
09:45	11.4	11.4	11.4	81	6.7	0	0	---	0.00	30.349 
09:50	11.6	11.6	11.6	81	6.9	0	0	---	0.00	30.349 
09:55	11.7	11.7	11.7	80	6.7	0	0	---	0.00	30.349 
10:00	11.9	11.9	11.9	80	6.9	0	1	90	0.00	30.348 
10:05	12.3	12.3	12.3	80	7.3	0	2	90	0.00	30.348 
10:10	12.3	12.3	12.3	79	7.1	0	2	90	0.00	30.348 
10:15	12.4	12.4	12.4	78	6.9	1	2	90	0.00	30.351 
10:20	12.6	12.6	12.6	78	7.1	0	2	90	0.00	30.351 
10:25	12.8	12.8	12.8	77	7.0	0	2	90	0.00	30.351 
10:30	12.9	12.9	12.9	77	7.1	0	2	90	0.00	30.357 
10:35	13.1	13.1	13.1	77	7.3	0	1	90	0.00	30.357 
10:40	13.3	13.3	13.3	76	7.2	0	2	90	0.00	30.357 
10:45	13.5	13.5	13.5	76	7.4	0	2	90	0.00	30.348 
10:50	13.8	13.8	13.8	75	7.4	0	2	90	0.00	30.348 
10:55	13.8	13.8	13.8	74	7.1	1	3	90	0.00	30.348 
11:00	13.6	13.6	13.6	74	6.9	1	3	90	0.00	30.346 
11:05	13.8	13.8	13.8	73	6.8	1	3	90	0.00	30.346 
11:10	13.8	13.8	13.8	73	6.8	2	3	90	0.00	30.346 
11:15	14.0	14.0	14.0	73	7.0	1	3	270	0.00	30.342 
11:20	14.1	14.1	14.1	73	7.1	1	3	270	0.00	30.342 
11:25	14.1	14.1	14.1	73	7.1	2	4	270	0.00	30.342 
11:30	14.1	14.1	14.1	72	6.8	2	4	270	0.00	30.334 
11:35	14.1	14.1	14.1	73	7.1	1	4	270	0.00	30.334 
11:40	14.1	14.1	14.1	72	6.8	1	5	270	0.00	30.334 
11:45	14.3	14.3	14.3	73	7.3	1	3	248	0.00	30.329 
11:50	14.3	14.3	14.3	72	7.0	2	5	248	0.00	30.329 
11:55	14.3	14.3	14.3	73	7.3	1	3	248	0.00	30.329 
12:00	14.4	14.4	14.4	73	7.4	1	4	248	0.00	30.323 
12:05	14.4	14.4	14.4	72	7.1	2	3	248	0.00	30.323 
12:10	14.4	14.4	14.4	72	7.1	1	4	248	0.00	30.323 
12:15	14.6	14.6	14.6	72	7.2	1	3	248	0.00	30.316 
12:20	14.8	14.8	14.8	72	7.4	1	3	248	0.00	30.316 
12:25	14.9	14.9	14.9	73	7.8	1	3	248	0.00	30.316 
12:30	15.2	15.2	15.2	72	7.8	1	3	248	0.00	30.314 
12:35	15.4	15.4	15.4	72	8.0	2	5	248	0.00	30.314 
12:40	15.4	15.4	15.4	71	7.7	2	4	292	0.00	30.314 
12:45	15.4	15.4	15.4	71	7.7	2	5	270	0.00	30.313 
12:50	15.6	15.6	15.6	71	7.9	2	4	270	0.00	30.313 
12:55	15.9	15.9	15.9	71	8.2	2	4	248	0.00	30.313 
13:00	16.1	16.1	16.1	71	8.4	2	4	248	0.00	30.309 
13:05	16.4	16.4	16.4	71	8.7	2	4	248	0.00	30.309 
13:10	16.7	16.7	16.7	70	8.6	2	5	248	0.00	30.309 
13:15	16.9	16.9	16.9	70	8.8	2	4	270	0.00	30.293 
13:20	17.0	17.0	17.0	69	8.6	2	5	248	0.00	30.293 
13:25	17.0	17.0	17.0	69	8.6	2	6	270	0.00	30.293 
13:30	17.7	17.7	17.7	69	9.3	2	5	270	0.00	30.298 
13:35	17.7	17.7	17.7	69	9.3	2	5	270	0.00	30.298 
13:40	17.5	17.5	17.5	68	8.8	2	6	270	0.00	30.298 
13:45	17.3	17.3	17.3	68	8.6	2	5	270	0.00	30.298 
13:50	17.5	17.5	17.5	67	8.4	2	7	248	0.00	30.298 
13:55	17.5	17.5	17.5	66	8.1	3	5	270	0.00	30.298 
14:00	17.5	17.5	17.5	66	8.1	2	5	270	0.00	30.285 
14:05	17.3	17.3	17.3	64	7.2	2	7	270	0.00	30.285 
14:10	17.2	17.2	17.2	65	7.5	2	4	292	0.00	30.285 
14:15	17.0	17.0	17.0	64	7.0	3	6	292	0.00	30.282 
14:20	17.3	17.3	17.3	65	7.6	2	5	270	0.00	30.282 
14:25	17.8	17.8	17.8	65	8.1	2	5	270	0.00	30.282 
14:30	18.3	18.3	18.3	64	8.2	1	4	292	0.00	30.279 
14:35	18.3	18.3	18.3	62	7.5	2	5	270	0.00	30.279 
14:40	17.7	17.7	17.7	62	6.9	3	6	292	0.00	30.279 
14:45	17.2	17.2	17.2	62	6.4	2	6	270	0.00	30.281 
14:50	17.0	17.0	17.0	62	6.3	2	6	270	0.00	30.281 
14:55	16.9	16.9	16.9	62	6.2	3	6	315	0.00	30.281 
15:00	17.0	17.0	17.0	63	6.6	2	4	270	0.00	30.281 
15:05	17.3	17.3	17.3	63	6.9	2	4	248	0.00	30.281 
15:10	17.2	17.2	17.2	62	6.4	2	5	248	0.00	30.281 
15:15	16.7	16.7	16.7	62	6.0	2	6	248	0.00	30.283 
15:20	16.7	16.7	16.7	62	6.0	3	7	248	0.00	30.283 
15:25	16.5	16.5	16.5	63	6.1	2	4	248	0.00	30.283 
15:30	16.5	16.5	16.5	62	5.8	3	6	248	0.00	30.288 
15:35	16.4	16.4	16.4	62	5.7	2	5	270	0.00	30.288 
15:40	16.1	16.1	16.1	61	5.1	2	5	248	0.00	30.288 
15:45	15.7	15.7	15.7	61	4.7	2	4	248	0.00	30.283 
15:50	15.6	15.6	15.6	61	4.6	2	4	248	0.00	30.283 
15:55	15.4	15.4	15.4	61	4.4	2	5	248	0.00	30.283 
16:00	15.1	15.1	15.1	60	3.7	2	7	248	0.00	30.284 
16:05	14.9	14.9	14.9	61	3.9	1	6	248	0.00	30.284 
16:10	14.6	14.6	14.6	61	3.6	2	5	248	0.00	30.284 
16:15	14.4	14.4	14.4	62	3.8	1	4	270	0.00	30.286 
16:20	14.3	14.3	14.3	62	3.7	2	6	248	0.00	30.286 
16:25	14.0	14.0	14.0	62	3.4	2	6	248	0.00	30.286 
16:30	13.6	13.6	13.6	63	3.4	1	4	270	0.00	30.281 
16:35	13.5	13.5	13.5	63	3.3	2	4	270	0.00	30.281 
16:40	13.5	13.5	13.5	64	3.6	1	4	270	0.00	30.281 
16:45	13.3	13.3	13.3	64	3.4	0	3	248	0.00	30.275 
16:50	12.9	12.9	12.9	64	3.1	2	6	248	0.00	30.275 
16:55	12.8	12.8	12.8	64	3.0	1	5	248	0.00	30.275 
17:00	12.4	12.4	12.4	64	2.6	2	5	248	0.00	30.277 
17:05	12.1	12.1	12.1	64	2.3	2	4	248	0.00	30.277 
17:10	11.7	11.7	11.7	63	1.6	2	6	248	0.00	30.277 
17:15	11.4	11.4	11.4	63	1.3	2	6	248	0.00	30.276 
17:20	11.2	11.2	11.2	64	1.4	1	4	248	0.00	30.276 
17:25	11.1	11.1	11.1	64	1.3	2	4	270	0.00	30.276 
17:30	10.9	10.9	10.9	64	1.1	2	4	270	0.00	30.280 
17:35	10.5	10.5	10.5	64	0.8	1	3	270	0.00	30.280 
17:40	10.2	10.2	10.2	64	0.5	2	4	248	0.00	30.280 
17:45	10.0	10.0	10.0	64	0.3	1	3	248	0.00	30.280 
17:50	9.7	9.7	9.7	65	0.3	2	6	248	0.00	30.280 
17:55	9.5	9.5	9.5	65	0.1	1	5	248	0.00	30.280 
18:00	9.3	9.3	9.3	65	-0.0	2	5	248	0.00	30.285 
18:05	9.2	9.2	9.2	65	-0.1	2	10	248	0.00	30.285 
18:10	8.8	8.8	8.8	65	-0.5	2	4	248	0.00	30.285 
18:15	8.6	8.6	8.6	65	-0.7	2	5	248	0.00	30.283 
18:20	8.4	8.4	8.4	65	-0.9	2	6	270	0.00	30.283 
18:25	8.4	8.4	8.4	66	-0.6	2	4	270	0.00	30.283 
18:30	8.3	8.3	8.3	66	-0.7	2	4	248	0.00	30.279 
18:35	8.1	8.1	8.1	66	-0.9	2	6	248	0.00	30.279 
18:40	7.9	7.9	7.9	66	-1.1	2	5	270	0.00	30.279 
18:45	7.7	7.7	7.7	66	-1.3	2	6	248	0.00	30.276 
18:50	7.7	7.7	7.7	67	-0.9	1	4	248	0.00	30.276 
18:55	7.6	7.6	7.6	67	-1.0	2	6	248	0.00	30.276 
19:00	7.7	7.7	7.7	67	-0.9	2	4	248	0.00	30.276 
19:05	7.7	7.7	7.7	67	-0.9	2	4	248	0.00	30.276 
19:10	7.7	7.7	7.7	68	-0.6	2	5	248	0.00	30.276 
19:15	7.7	7.7	7.7	68	-0.6	1	4	270	0.00	30.276 
19:20	7.7	7.7	7.7	68	-0.6	2	5	248	0.00	30.276 
19:25	7.7	7.7	7.7	68	-0.6	3	7	248	0.00	30.276 
19:30	7.7	7.7	7.7	68	-0.6	2	5	270	0.00	30.275 
19:35	7.7	7.7	7.7	68	-0.6	2	4	270	0.00	30.275 
19:40	7.7	7.7	7.7	69	-0.3	1	4	248	0.00	30.275 
19:45	7.7	7.7	7.7	69	-0.3	1	4	248	0.00	30.264 
19:50	7.9	7.9	7.9	69	-0.1	2	5	270	0.00	30.264 
19:55	7.9	7.9	7.9	69	-0.1	2	6	270	0.00	30.264 
20:00	7.9	7.9	7.9	69	-0.1	2	5	270	0.00	30.262 
20:05	7.9	7.9	7.9	69	-0.1	2	5	248	0.00	30.262 
20:10	7.9	7.9	7.9	69	-0.1	2	5	248	0.00	30.262 
20:15	7.9	7.9	7.9	69	-0.1	2	6	248	0.00	30.264 
20:20	7.7	7.7	7.7	69	-0.3	2	5	270	0.00	30.264 
20:25	7.7	7.7	7.7	69	-0.3	2	6	248	0.00	30.264 
20:30	7.9	7.9	7.9	70	0.2	2	5	248	0.00	30.263 
20:35	7.7	7.7	7.7	70	-0.0	3	7	270	0.00	30.263 
20:40	7.7	7.7	7.7	70	-0.0	3	6	270	0.00	30.263 
20:45	7.7	7.7	7.7	71	0.3	3	6	270	0.00	30.259 
20:50	7.9	7.9	7.9	71	0.5	3	9	248	0.00	30.259 
20:55	7.9	7.9	7.9	71	0.5	3	5	270	0.00	30.259 
21:00	7.9	7.9	7.9	71	0.5	3	6	270	0.00	30.250 
21:05	7.9	7.9	7.9	71	0.5	2	7	270	0.00	30.250 
21:10	7.9	7.9	7.9	71	0.5	2	5	248	0.00	30.250 
21:15	8.1	8.1	8.1	71	0.7	2	13	248	0.00	30.242 
21:20	8.1	8.1	8.1	71	0.7	3	10	248	0.00	30.242 
21:25	7.9	7.9	7.9	71	0.5	3	7	248	0.00	30.242 
21:30	8.1	8.1	8.1	71	0.7	2	6	248	0.00	30.240 
21:35	8.1	8.1	8.1	71	0.7	3	5	270	0.00	30.240 
21:40	8.1	8.1	8.1	71	0.7	2	6	270	0.00	30.240 
21:45	8.1	8.1	8.1	72	1.0	2	5	248	0.00	30.240 
21:50	8.1	8.1	8.1	71	0.7	3	7	248	0.00	30.240 
21:55	8.1	8.1	8.1	71	0.7	3	6	270	0.00	30.240 
22:00	8.3	8.3	8.3	72	1.2	2	4	270	0.00	30.237 
22:05	8.3	8.3	8.3	72	1.2	2	5	270	0.00	30.237 
22:10	8.3	8.3	8.3	72	1.2	2	7	270	0.00	30.237 
22:15	8.3	8.3	8.3	71	0.9	2	4	270	0.00	30.226 
22:20	8.3	8.3	8.3	72	1.2	2	5	248	0.00	30.226 
22:25	8.4	8.4	8.4	72	1.3	2	6	248	0.00	30.226 
22:30	8.4	8.4	8.4	72	1.3	2	6	248	0.00	30.235 
22:35	8.4	8.4	8.4	72	1.3	1	4	248	0.00	30.235 
22:40	8.6	8.6	8.6	72	1.5	2	4	248	0.00	30.235 
22:45	8.6	8.6	8.6	71	1.2	2	5	248	0.00	30.237 
22:50	8.6	8.6	8.6	71	1.2	2	5	248	0.00	30.237 
22:55	8.6	8.6	8.6	71	1.2	1	3	248	0.00	30.237 
23:00	8.6	8.6	8.6	71	1.2	2	4	248	0.00	30.236 
23:05	8.6	8.6	8.6	71	1.2	2	4	270	0.00	30.236 
23:10	8.8	8.8	8.8	71	1.4	3	5	248	0.00	30.236 
23:15	8.8	8.8	8.8	71	1.4	2	4	270	0.00	30.230 
23:20	8.8	8.8	8.8	71	1.4	1	4	292	0.00	30.230 
23:25	9.0	9.0	9.0	71	1.5	2	5	248	0.00	30.230 
23:30	9.0	9.0	9.0	70	1.2	2	5	270	0.00	30.232 
23:35	9.0	9.0	9.0	70	1.2	2	6	270	0.00	30.232 
23:40	9.2	9.2	9.2	70	1.4	2	3	270	0.00	30.232 
23:45	9.2	9.2	9.2	70	1.4	2	4	270	0.00	30.234 
23:50	9.2	9.2	9.2	70	1.4	1	4	270	0.00	30.234 
23:55	9.2	9.2	9.2	70	1.4	2	5	248	0.00	30.234 

CoCoRaHS
IN-AL-39
A2 Web Hosting
Creative Commons License
GoDaddy
search engine by freefind advanced

loaded 2018-11-20 15:07:19 • last modified 2010-11-18 10:43:29
Privacy PolicyDisclaimer
• wx.awcolley.com is powered by PmWiki v.2002016 •
• all content (unless otherwise noted) © 2018 A W Colley